This demonstration page uses our WeatherBlox Daily Observations layout. Learn more.

Left ArrowRight Arrow

Hourly Observations for October 25, 2021

Temp ( °F °C ) Dew Point ( °F °C ) Humidity (%) Winds ( mph kmh ) Pressure ( in mb ) Visibility ( mi km ) Precip ( " mm )
12:53 am 00:53 Cloudy 56 13.3 52 11.1 87 87 S 14 22 29.50 999 10 16 0.00 0.00
1:31 am 01:31 Cloudy 55 12.8 52 11.1 90 90 SSW 12 19 29.52 1000 9 14 0.01 0.25
1:53 am 01:53 Cloudy with Light Rain 55 12.8 53 11.7 93 93 SW 10 17 29.52 1000 10 16 0.02 0.51
2:06 am 02:06 Cloudy with Heavy Rain 54 12.2 51 10.6 90 90 WSW 12 19 29.53 1000 2 3 0.11 2.79
2:12 am 02:12 Cloudy with Heavy Rain 54 12.2 50 10 87 87 WSW 12 19 29.53 1000 2 3 0.19 4.83
2:22 am 02:22 Cloudy with Light Rain 53 11.7 48 8.9 83 83 WSW 7 11 29.51 999 8 13 0.24 6.10
2:53 am 02:53 Cloudy 53 11.7 47 8.3 80 80 SSW 6 9 29.53 1000 10 16 0.24 6.10
3:53 am 03:53 Cloudy 51 10.6 48 8.9 89 89 Calm 29.54 1000 10 16 0.00 0.00
4:53 am 04:53 Partly Cloudy 51 10.6 48 8.9 89 89 ESE 8 13 29.53 1000 10 16 0.00 0.00
5:53 am 05:53 Mostly Clear 51 10.6 48 8.9 89 89 Calm 29.57 1002 10 16 0.00 0.00
6:53 am 06:53 Clear 50 10 48 8.9 93 93 NW 6 9 29.58 1002 10 16 0.00 0.00
7:53 am 07:53 Partly Cloudy 49 9.4 47 8.3 93 93 Calm 29.61 1003 10 16 0.00 0.00
8:53 am 08:53 Sunny 52 11.1 49 9.4 89 89 Calm 29.66 1004 10 16 0.00 0.00
9:53 am 09:53 Sunny 56 13.3 48 8.9 75 75 Calm 29.69 1006 10 16 0.00 0.00
10:53 am 10:53 Sunny 59 15 49 9.4 69 69 Calm 29.71 1006 10 16 0.00 0.00
11:53 am 11:53 Sunny 60 15.6 48 8.9 65 65 Calm 29.73 1007 10 16 0.00 0.00
12:53 pm 12:53 Mostly Cloudy 63 17.2 45 7.2 52 52 Calm 29.74 1007 10 16 0.00 0.00
1:53 pm 13:53 Sunny 64 17.8 40 4.4 41 41 SW 10 17 29.74 1007 10 16 0.00 0.00
2:53 pm 14:53 Cloudy 64 17.8 40 4.4 41 41 SSW 13 20 29.75 1007 10 16 0.00 0.00
3:53 pm 15:53 Cloudy 64 17.8 41 5 43 43 SSW 9 15 29.77 1008 10 16 0.00 0.00
4:53 pm 16:53 Mostly Cloudy 62 16.7 44 6.7 52 52 S 14 22 29.80 1009 10 16 0.00 0.00
5:53 pm 17:53 Mostly Cloudy 59 15 47 8.3 64 64 SSE 7 11 29.81 1010 10 16 0.00 0.00
6:53 pm 18:53 Cloudy 58 14.4 48 8.9 70 70 S 8 13 29.85 1011 10 16 0.00 0.00
7:53 pm 19:53 Mostly Cloudy 57 13.9 48 8.9 72 72 SSE 15 24 29.87 1012 10 16 0.00 0.00
8:53 pm 20:53 Mostly Cloudy 56 13.3 49 9.4 77 77 S 8 13 29.90 1012 10 16 0.00 0.00
9:53 pm 21:53 Mostly Cloudy 58 14.4 44 6.7 60 60 SW 7 11 29.93 1014 10 16 0.00 0.00
10:53 pm 22:53 Cloudy 58 14.4 40 4.4 51 51 WSW 7 11 29.94 1014 10 16 0.00 0.00
11:53 pm 23:53 Mostly Clear 57 13.9 45 7.2 64 64 S 8 13 29.94 1014 10 16 0.00 0.00

Powered by AerisWeather